Wind_Speed
22 22 21 21 20 20 19 19 18 18 17 17 18 19 19 18 17 17 17 17 16 16 15 15 16 16 16 15 14 15 16 16 17 17 18 19 19 20 20 19 19 19 18 18 18 17 17 16 16 15 15 15 15 16 17 17 17 17 16 17 17 17 16 16 16 17 18 20 22 24 26 28 29 27 26 25 24 24 24 25 26 26 24 23 21
21 21 21 21 20 20 19 18 18 18 17 17 18 19 19 19 19 18 18 17 17 16 15 14 16 16 15 14 14 15 15 16 16 17 18 19 19 19 18 18 18 18 18 18 17 17 17 17 16 16 16 16 16 17 17 17 17 17 16 17 17 17 16 16 16 17 18 20 22 24 26 28 29 28 27 27 26 26 26 26 26 27 26 25 23
20 20 20 20 20 19 18 17 17 18 17 17 18 18 18 19 19 19 18 17 16 16 14 14 15 15 14 14 13 14 15 15 15 15 16 17 17 17 17 17 17 17 17 17 17 18 17 17 17 16 17 17 17 17 17 17 17 17 17 17 17 17 16 15 16 17 18 20 21 23 25 27 28 27 28 28 29 28 28 28 28 28 28 26 25
19 19 19 19 18 18 17 17 17 18 18 17 17 18 18 19 19 19 18 17 16 15 14 13 14 14 13 13 13 13 14 15 14 14 14 15 16 16 16 16 16 15 15 16 16 17 17 17 16 16 17 17 17 17 17 17 17 17 17 17 17 17 15 15 16 17 19 20 21 23 25 26 26 26 28 29 29 30 30 30 30 30 29 28 27
18 19 18 18 17 17 17 17 17 18 18 18 17 17 17 18 18 19 18 17 16 15 13 13 13 13 12 12 12 13 14 13 13 13 13 13 14 14 14 15 15 14 14 14 15 15 16 16 16 16 17 17 17 18 17 17 17 17 17 17 17 16 15 15 16 17 18 19 21 23 24 25 25 25 27 28 29 30 30 30 30 30 31 30 30
17 18 18 17 17 17 17 17 17 17 18 18 17 17 17 17 17 18 18 18 17 15 13 12 12 12 11 11 11 12 13 12 12 12 12 12 12 12 13 13 13 13 13 13 13 14 15 16 16 16 16 17 18 18 18 17 17 16 17 16 16 16 14 14 15 17 18 19 20 22 23 23 23 24 26 28 29 30 30 31 31 31 32 32 31
17 17 17 16 16 17 16 16 16 16 17 17 16 16 16 17 17 17 17 18 17 15 14 13 12 11 10 10 10 11 12 11 11 10 10 10 10 11 11 12 11 11 11 12 12 13 14 15 15 16 16 17 18 18 18 18 17 16 16 16 16 15 14 14 15 16 18 19 20 21 22 21 22 24 25 27 28 29 30 31 31 32 32 33 33
16 17 17 16 16 16 15 15 15 15 16 16 15 15 16 16 16 16 17 18 17 15 14 13 12 11 9 9 9 10 11 10 9 9 8 8 9 10 10 10 10 10 10 11 11 12 13 14 14 15 16 17 18 18 18 17 16 15 15 15 15 14 14 14 14 15 17 18 19 20 20 21 22 23 25 27 28 29 30 31 31 32 32 33 33
15 15 16 16 15 15 14 14 15 15 15 15 14 14 15 15 15 15 16 17 17 16 14 13 12 11 9 8 8 8 9 9 8 7 7 7 8 8 8 8 8 9 9 10 10 11 12 13 14 15 16 17 17 17 17 17 16 14 13 14 14 14 13 13 13 14 16 17 18 19 19 20 21 23 25 26 28 29 30 31 31 32 32 32 33
14 14 15 15 15 14 14 14 14 14 14 13 13 13 14 14 14 14 14 15 16 16 15 14 12 10 8 7 7 7 7 7 7 6 5 6 6 6 7 7 7 8 8 9 9 10 11 12 13 14 15 16 16 16 16 16 15 13 12 13 13 12 12 11 12 13 15 16 17 17 18 19 21 22 24 26 28 29 31 31 32 32 32 32 32
14 14 14 14 14 14 13 13 12 12 12 11 12 12 13 13 13 12 13 13 15 15 15 14 13 10 8 6 6 5 5 5 5 4 4 4 5 5 5 5 5 6 7 8 9 9 11 12 13 14 14 15 16 15 15 15 13 12 11 11 11 11 10 10 11 12 14 15 16 16 16 18 19 21 23 25 27 29 31 32 32 32 32 32 32
13 13 13 13 13 13 13 13 12 11 10 11 11 11 11 11 11 11 11 11 13 14 13 13 12 11 8 6 5 4 3 3 3 2 2 3 3 3 3 3 4 4 6 7 8 9 10 11 12 14 14 15 15 15 14 13 12 11 10 10 10 10 9 9 9 10 13 14 14 15 15 16 18 20 22 24 27 29 31 32 32 32 32 32 32
12 12 13 12 12 12 12 12 12 11 11 10 10 9 9 9 9 10 10 10 10 11 12 12 11 10 8 6 4 4 3 2 2 1 1 1 1 2 2 2 3 4 5 7 8 10 11 12 13 13 14 14 14 14 14 12 11 10 9 9 9 8 8 8 9 10 12 13 13 13 13 14 16 19 21 23 26 28 31 33 33 32 32 32 32
11 12 12 12 11 11 11 11 11 11 11 10 10 9 8 7 8 9 10 10 10 9 9 10 10 9 8 6 4 3 2 2 1 1 1 1 1 2 2 3 3 4 5 7 8 10 11 12 12 13 14 14 14 14 13 12 10 9 8 7 7 7 8 8 8 9 11 12 12 12 12 13 15 18 20 23 25 28 30 32 33 32 32 32 31
11 11 11 11 11 10 10 10 10 10 10 10 10 9 8 7 7 8 10 10 10 9 8 8 9 9 8 6 5 3 2 1 2 2 2 2 3 4 4 5 6 6 6 7 9 10 11 12 12 13 14 14 14 13 13 11 10 9 7 7 7 7 8 8 8 9 11 11 12 12 12 12 14 17 20 22 25 28 30 32 32 31 31 31 31
11 11 11 11 11 10 10 10 9 9 8 8 8 8 8 7 7 7 9 9 9 9 8 7 7 8 8 7 6 4 3 2 2 2 2 3 4 4 5 6 7 7 8 8 9 10 11 11 12 13 13 14 13 13 12 11 10 8 7 6 7 8 8 7 8 9 11 11 11 12 11 12 14 17 19 22 24 27 30 32 32 31 31 31 31
11 11 11 10 10 10 9 9 9 8 8 7 7 7 7 7 7 7 8 8 8 8 8 7 6 6 6 6 5 4 3 3 2 2 3 4 4 5 5 6 7 8 8 9 10 11 12 12 12 13 13 13 13 12 11 11 9 8 7 7 7 8 8 7 8 9 11 11 12 12 11 12 14 17 19 21 24 27 30 31 31 30 30 31 30
10 10 11 10 10 9 9 9 9 8 8 8 7 7 7 7 7 7 8 8 7 7 7 6 5 5 5 4 3 3 3 3 3 3 3 4 4 5 6 7 8 9 10 11 12 13 13 14 14 13 13 12 12 11 10 9 8 7 7 6 7 7 7 7 8 9 10 12 12 12 11 12 14 17 19 21 23 26 29 30 30 29 29 30 30
10 10 10 10 10 9 9 9 8 8 8 8 8 7 7 7 7 7 7 7 7 7 7 6 6 5 4 3 2 1 2 2 3 4 4 4 5 6 7 8 9 10 11 12 12 13 13 14 14 13 11 10 9 9 8 8 7 6 6 6 6 7 7 7 8 9 10 11 12 12 11 12 14 17 19 20 23 25 27 29 29 28 29 29 30
10 10 9 9 9 9 9 8 8 8 8 7 7 7 7 7 7 7 6 7 7 7 6 6 5 4 3 2 2 1 1 2 3 4 5 5 5 6 7 8 9 10 11 11 12 12 12 12 12 11 10 9 8 7 6 6 6 5 5 5 6 7 7 7 8 9 10 11 11 11 11 11 13 16 18 19 21 23 25 27 28 28 28 28 29
9 8 8 8 7 7 8 8 7 7 7 6 6 6 6 6 6 6 5 6 7 7 6 6 5 4 3 2 2 1 1 1 2 4 5 6 6 7 8 8 9 10 11 11 10 10 10 11 11 11 10 9 7 6 6 7 6 5 5 5 6 6 7 8 8 9 10 10 11 11 11 11 13 15 16 18 20 21 23 25 26 27 27 27 28
8 7 7 7 7 6 6 7 7 7 6 6 6 6 6 5 5 5 5 6 6 7 6 6 5 4 3 3 2 2 2 2 3 4 5 6 7 8 8 8 9 10 10 10 10 9 9 9 10 10 9 8 8 7 7 7 6 5 5 6 6 7 7 8 9 10 11 11 11 11 11 11 12 13 15 16 17 19 22 24 25 26 26 26 27
7 7 7 7 6 6 6 6 6 6 6 6 5 5 5 5 5 4 4 5 5 6 6 5 5 4 4 3 3 4 4 4 4 4 5 7 7 7 7 8 9 9 9 9 9 8 8 9 9 9 9 9 8 8 7 6 5 5 5 6 6 7 7 8 10 11 12 12 12 11 11 11 11 12 13 15 16 17 20 23 24 24 25 26 26
7 7 6 7 6 6 6 6 6 6 6 6 5 5 4 4 4 4 4 4 4 4 4 4 4 5 5 5 5 5 6 6 6 6 6 7 7 7 7 8 8 8 8 8 8 7 8 8 8 8 8 8 8 7 6 5 4 4 5 5 6 7 7 9 10 12 13 12 12 11 11 11 11 12 12 13 14 16 19 21 23 23 23 24 24
6 6 6 6 6 6 6 6 5 5 5 6 6 5 4 4 4 4 4 4 4 4 4 4 5 5 6 6 6 6 6 7 7 7 7 7 7 7 7 8 8 8 8 8 8 7 8 8 8 7 7 7 6 6 5 4 4 4 4 5 6 7 8 9 10 12 12 12 12 12 11 11 11 11 11 11 13 15 17 19 21 22 22 23 24
6 5 5 5 5 6 5 5 5 5 5 5 5 5 4 4 4 4 4 4 4 5 5 6 6 6 6 6 6 6 6 7 7 7 7 7 6 6 7 7 8 8 7 8 8 8 7 8 8 7 7 6 6 5 5 4 4 5 5 5 7 8 9 10 10 11 11 11 12 12 12 11 10 10 10 10 11 13 16 18 20 21 21 22 23
6 5 5 5 5 5 5 4 4 4 4 4 4 4 4 4 4 4 4 4 5 5 6 7 7 7 7 7 7 7 7 7 7 8 7 7 7 7 7 8 8 8 8 8 8 8 8 7 8 8 7 7 6 6 5 4 4 5 6 7 8 9 9 10 11 11 11 11 11 12 11 11 9 8 9 10 10 13 14 16 18 19 20 21 22
5 6 6 6 5 5 4 4 4 4 4 4 4 4 4 5 4 5 5 5 6 6 7 8 8 8 8 8 8 7 7 7 8 9 8 7 7 7 8 8 8 8 8 8 8 9 8 7 7 8 8 7 7 6 5 5 5 6 7 8 8 9 10 11 11 11 11 11 11 11 11 10 8 7 8 9 10 12 13 15 17 18 19 20 20
5 5 5 5 5 5 4 4 4 4 4 4 4 5 5 5 5 5 6 6 7 8 8 9 10 9 9 9 9 8 8 8 8 9 8 8 8 7 7 8 8 8 8 8 8 8 9 9 8 9 9 8 8 7 6 6 6 6 7 8 9 9 10 11 11 11 11 11 12 11 11 10 8 8 8 9 10 11 12 14 16 17 18 19 19
6 6 5 5 5 5 4 4 4 4 4 4 4 5 5 5 5 6 6 7 7 8 9 9 10 10 10 10 10 9 9 9 9 9 9 8 9 8 8 7 8 7 7 7 7 8 9 9 9 9 9 9 8 7 7 7 6 7 7 8 9 9 10 10 11 11 12 12 12 11 10 9 9 9 9 10 10 11 12 13 14 15 16 17 18
7 7 6 5 5 5 4 4 5 5 5 5 5 5 5 6 6 6 6 7 7 8 8 9 9 9 9 9 9 9 10 10 10 10 8 8 8 8 8 7 7 7 7 7 7 7 8 9 10 9 9 9 8 7 7 7 6 6 7 8 8 8 9 9 11 12 12 12 12 11 10 9 9 9 10 10 10 10 11 12 13 14 15 16 17
8 8 7 6 6 6 6 6 5 5 5 6 6 5 6 6 6 7 7 8 7 7 7 8 8 9 9 9 9 10 11 11 11 10 9 8 8 8 8 8 8 8 8 8 8 9 9 9 10 9 8 8 8 7 6 6 6 6 7 8 8 8 9 10 11 12 12 12 12 11 9 9 8 8 8 9 9 9 10 11 12 13 14 15 15
10 9 9 8 8 8 8 8 7 7 7 7 6 6 7 7 7 8 8 8 8 7 7 7 8 8 9 9 9 10 11 12 12 12 11 11 10 10 9 9 10 10 10 9 8 9 9 9 9 9 8 8 8 8 7 6 6 6 7 8 8 9 10 10 11 12 13 13 12 11 10 9 8 8 8 8 8 8 10 11 12 12 13 13 14
11 11 10 10 10 10 10 10 10 9 9 9 8 8 9 9 9 9 9 9 8 8 8 8 8 9 9 9 9 9 10 10 11 11 11 11 11 11 10 10 10 11 11 10 9 9 9 9 9 9 9 8 8 8 8 7 7 7 7 8 8 9 10 11 11 12 12 13 13 13 11 10 10 9 9 9 9 9 10 11 12 12 12 12 12
12 11 11 11 11 12 12 12 12 12 12 11 11 11 11 11 11 10 10 10 10 9 9 9 9 9 9 10 10 10 10 10 10 10 10 10 10 10 10 10 10 10 10 10 10 10 9 9 10 10 9 9 10 9 8 9 9 8 8 8 8 9 11 12 11 12 12 13 13 13 13 13 12 12 11 11 12 12 12 13 13 12 12 12 12
13 12 11 11 12 12 13 13 13 14 14 14 13 13 13 13 13 12 12 11 11 11 11 10 10 10 10 10 10 11 11 11 11 10 10 9 9 9 10 10 10 11 11 11 11 11 11 10 10 10 10 10 10 11 10 10 10 10 10 10 10 10 12 12 12 12 12 12 12 13 14 13 13 13 13 13 13 14 14 14 14 13 13 12 11
14 14 13 13 13 12 12 13 13 13 14 14 14 14 15 15 15 14 14 13 12 12 12 12 11 11 11 11 12 12 12 12 12 11 11 11 10 11 11 11 11 12 12 12 12 12 11 11 11 11 11 11 11 11 11 11 11 11 11 11 12 13 13 13 11 12 13 12 12 12 12 12 12 13 13 13 13 14 14 14 14 13 13 12 11
16 16 16 16 16 15 14 13 13 13 13 13 14 14 15 16 16 16 15 15 15 15 15 14 14 13 13 13 14 14 14 14 14 14 13 13 13 13 14 13 13 13 13 13 13 12 12 12 12 12 12 13 13 12 12 13 14 14 13 11 11 13 15 15 13 12 13 13 12 11 11 10 11 12 13 13 13 13 13 14 14 13 13 12 11
18 18 19 19 18 17 17 16 16 15 14 14 14 15 15 15 15 16 15 15 16 16 16 15 15 16 16 16 16 16 16 16 15 16 16 15 15 15 15 15 15 14 14 13 13 14 14 14 14 14 13 13 13 13 13 15 16 17 17 15 12 12 14 16 15 13 13 14 13 10 10 10 11 11 12 13 13 13 13 13 13 13 13 12 11
20 20 20 19 19 19 19 19 18 17 17 16 16 16 16 15 15 15 15 15 15 16 16 15 16 16 17 17 18 18 18 18 18 18 18 18 18 17 17 17 16 16 15 15 15 15 16 15 15 15 14 13 13 14 14 15 16 16 18 18 16 13 12 14 16 14 13 15 14 12 10 10 10 11 12 12 12 12 12 12 12 12 12 11 11
22 22 21 20 20 20 20 20 19 18 18 19 19 18 18 17 16 16 15 15 15 15 15 15 15 16 17 18 18 19 19 19 20 20 20 21 21 21 20 19 19 18 18 18 17 17 18 17 16 16 14 13 13 13 14 15 15 15 16 17 17 15 13 13 15 16 14 15 16 15 13 13 12 12 12 12 12 12 12 12 12 11 11 11 11
23 22 22 21 20 20 20 19 19 19 20 21 21 20 19 18 18 17 16 16 15 15 15 16 16 17 17 18 18 19 19 19 20 21 21 22 22 23 23 22 22 21 21 20 20 20 20 19 19 18 17 14 13 14 15 15 15 15 16 16 17 16 14 13 15 16 15 14 15 16 16 15 15 15 14 14 14 14 13 12 12 11 11 11 11
22 22 22 21 20 20 20 19 19 20 21 22 22 21 20 19 18 17 17 15 14 14 15 16 17 17 18 18 18 18 19 20 21 21 22 22 23 23 24 23 23 23 23 23 23 22 22 22 21 20 19 18 16 15 17 18 17 16 16 16 17 17 16 16 16 17 16 15 15 16 16 16 16 16 16 16 16 15 15 14 13 12 11 11 11
21 21 21 21 21 20 20 19 19 20 20 22 22 22 21 19 18 17 15 14 13 14 15 16 17 17 17 18 18 18 19 20 21 22 23 23 24 24 24 25 24 24 24 25 24 24 24 23 22 21 20 19 18 17 18 20 20 19 18 17 18 18 17 17 17 19 18 16 16 17 18 17 17 17 17 17 17 17 16 16 15 14 13 13 12
20 21 22 22 21 20 20 19 19 19 19 20 21 22 21 20 18 16 16 16 16 16 17 18 19 19 19 19 19 19 20 21 22 23 24 24 25 25 26 26 26 25 26 26 26 26 26 25 24 23 21 20 20 19 19 20 22 22 21 19 18 18 18 17 18 19 20 19 18 19 20 19 18 18 18 17 17 17 16 16 16 16 15 15 14
21 22 22 21 21 21 21 20 19 19 19 19 20 21 21 20 19 18 18 19 19 19 20 21 22 22 21 20 20 22 23 24 25 26 26 26 26 26 26 26 26 27 27 27 27 27 27 27 26 25 24 22 22 21 21 21 22 23 23 21 19 18 18 18 19 20 21 21 21 21 22 21 19 19 19 18 17 17 16 16 16 16 16 16 16
21 22 22 23 23 23 22 21 21 21 20 20 20 20 21 21 21 21 22 22 22 22 23 24 25 25 24 24 24 26 27 28 29 29 29 30 30 29 27 26 25 26 27 27 28 27 28 28 27 28 27 25 24 23 23 23 23 23 24 23 22 21 20 20 20 20 21 22 23 23 24 24 22 20 20 19 18 17 17 17 17 17 17 17 16
24 24 25 27 27 26 24 24 24 24 22 22 22 22 23 23 24 24 24 25 25 25 27 28 28 28 29 28 28 28 31 33 33 32 32 32 32 32 30 28 26 26 26 28 29 29 28 28 28 28 29 28 27 25 25 25 26 26 26 26 25 24 24 24 23 22 23 24 24 24 25 25 24 22 22 21 19 18 18 18 18 18 18 17 17
28 28 28 30 30 29 29 29 29 29 27 26 26 26 26 26 26 26 27 28 29 29 30 30 30 30 30 31 31 33 35 36 36 36 36 34 33 33 33 32 30 29 27 28 30 30 30 29 29 29 29 29 29 27 26 27 28 29 29 29 29 27 27 26 25 25 26 26 25 25 25 25 25 24 23 23 21 19 18 19 19 19 18 17 17
29 29 29 31 31 31 31 32 32 32 31 30 30 30 30 29 29 29 29 30 31 32 32 32 33 32 32 33 34 36 37 37 37 39 40 38 37 37 36 35 34 32 30 30 30 30 31 30 30 29 29 30 30 29 28 28 29 30 31 31 30 29 28 28 27 26 27 27 26 25 24 24 25 24 23 23 22 20 19 19 19 19 18 18 17
29 28 28 28 28 28 29 30 30 31 31 32 32 33 33 32 32 32 32 33 33 33 34 34 35 35 35 36 38 39 40 41 41 41 41 41 41 40 38 37 36 35 33 33 32 31 32 31 30 30 30 31 31 30 29 29 30 30 31 31 31 31 30 29 29 28 28 28 27 25 23 23 23 23 23 22 22 21 20 19 19 20 19 19 18
Wind_Direction
111 112 113 113 113 112 112 111 109 106 103 102 102 102 102 102 103 102 101 100 99 97 96 100 102 100 99 98 98 98 98 99 99 99 97 95 93 91 89 88 86 83 79 75 71 67 64 61 60 59 58 55 53 51 48 47 46 45 44 43 42 41 39 37 32 27 23 23 21 18 16 14 14 14 15 18 20 21 18 15 13 10 9 6 2
113 114 114 114 114 114 112 110 107 104 102 102 101 102 103 105 104 103 101 98 97 97 97 100 103 102 101 99 98 98 99 100 99 98 98 96 93 90 89 87 83 80 75 72 69 66 64 62 62 61 59 55 52 50 48 47 47 46 44 43 43 41 41 38 33 29 27 26 23 20 17 14 12 12 14 17 20 21 20 18 16 13 11 9 4
115 115 115 116 116 114 112 110 107 104 103 101 99 101 104 105 105 103 102 99 97 97 98 101 103 104 103 101 99 99 100 100 99 97 96 95 93 91 88 84 80 75 71 68 65 64 63 62 62 61 58 54 51 49 48 47 46 45 44 43 42 40 41 38 33 30 29 28 25 22 19 15 13 13 15 18 19 19 19 17 16 14 11 10 7
118 118 118 118 116 113 110 108 106 104 101 99 98 100 102 104 104 103 102 99 97 96 100 105 105 105 104 103 102 100 99 98 97 95 92 91 91 90 87 82 76 72 68 65 62 61 61 59 58 57 54 51 48 47 46 45 45 43 42 42 40 39 40 38 34 31 30 28 25 24 21 18 16 17 17 18 18 17 17 16 15 13 11 10 9
121 121 120 118 115 110 108 108 107 104 101 99 99 100 101 103 104 103 101 99 96 96 100 105 106 106 105 104 104 101 98 95 93 91 88 88 87 87 85 80 75 70 66 62 59 56 56 55 53 51 49 46 45 44 43 43 44 43 41 40 39 39 40 38 34 31 29 27 25 25 24 22 20 19 18 17 16 15 14 13 12 11 10 9 9
121 120 119 118 115 111 109 110 109 106 102 101 100 102 103 104 105 104 102 98 95 95 99 102 104 105 103 103 102 99 96 94 90 88 88 87 85 83 81 79 75 69 64 59 55 51 51 51 49 46 44 41 40 40 40 40 42 41 40 40 38 37 38 37 34 31 28 26 25 27 27 26 23 19 17 15 14 13 11 9 9 9 7 7 8
121 120 119 118 115 113 114 115 113 108 103 102 103 104 105 107 107 106 103 100 97 98 102 106 107 104 103 103 99 96 94 92 89 86 84 84 82 79 77 75 72 68 63 57 52 48 46 46 44 41 38 36 35 35 36 37 38 40 40 40 38 36 37 37 33 30 28 25 25 27 30 30 25 20 16 14 13 11 9 7 6 6 5 5 6
124 124 123 120 118 118 120 119 115 109 104 104 105 105 107 110 111 110 107 105 104 105 109 112 111 107 105 104 101 98 96 93 89 84 80 80 77 74 72 69 66 63 58 54 50 45 41 39 38 35 32 30 30 30 32 33 35 37 40 41 39 37 37 35 32 28 26 24 24 27 31 30 24 20 16 13 11 10 8 5 3 4 4 3 4
125 126 126 124 123 123 123 121 116 112 108 107 107 107 108 110 113 112 110 109 110 112 115 115 114 112 112 110 108 108 105 101 96 89 81 76 74 72 69 65 60 54 49 46 42 38 34 31 30 29 27 24 24 26 28 30 33 36 40 41 40 39 37 35 30 25 24 22 23 27 31 29 23 18 16 13 10 9 7 5 3 3 3 2 3
126 127 128 129 129 128 126 123 119 116 115 113 110 108 109 111 113 112 112 114 115 118 121 121 120 120 122 122 123 121 115 111 106 100 88 78 75 71 66 59 51 45 37 33 29 26 24 22 21 21 20 19 18 21 24 26 31 37 41 42 41 41 39 35 29 22 21 20 22 27 31 29 22 16 16 13 10 8 7 6 4 3 3 2 3
128 128 130 132 132 132 129 126 124 122 119 115 113 114 115 115 116 117 118 119 119 122 125 127 129 133 136 135 136 134 123 117 113 107 95 83 78 72 63 53 43 33 25 19 15 12 12 12 13 13 14 12 13 16 20 23 28 35 40 42 42 42 41 36 28 20 17 18 20 26 31 29 21 16 15 13 10 8 6 6 5 4 3 2 3
128 130 132 135 135 135 133 131 130 127 122 118 118 121 122 120 119 119 120 122 121 122 125 127 131 137 142 145 149 150 135 121 117 117 102 81 73 65 52 38 25 13 9 4 360 359 360 3 6 6 7 6 9 13 16 19 25 31 36 39 41 42 42 37 28 18 14 15 19 26 32 30 22 16 14 13 11 8 6 6 6 5 4 3 3
130 132 134 136 137 139 138 137 137 135 133 130 128 128 127 124 120 118 119 119 117 118 123 127 132 140 148 155 160 165 161 146 143 157 129 91 67 48 28 15 359 349 351 349 348 350 351 354 359 360 1 3 7 12 14 17 23 27 32 36 39 40 40 37 27 16 12 13 17 24 31 31 24 16 13 13 11 9 7 7 6 6 5 4 4
130 131 133 135 137 141 143 144 146 146 145 144 142 138 135 128 121 119 120 118 115 113 118 127 135 145 156 165 166 170 184 188 209 244 272 315 320 326 330 336 335 333 337 338 340 344 344 347 353 356 358 1 6 9 11 15 20 24 28 31 35 37 37 36 25 13 9 12 17 22 29 30 24 16 11 12 11 9 8 8 7 6 7 6 6
127 128 131 135 139 143 146 149 152 155 155 154 151 145 140 133 124 122 123 122 118 114 115 125 134 143 155 166 168 173 197 234 252 268 299 316 314 316 324 330 331 329 330 333 336 338 339 341 348 353 355 358 3 7 9 12 16 20 22 25 30 32 35 33 20 10 8 12 17 21 25 25 22 15 9 10 10 9 9 8 7 7 8 7 7
128 129 131 135 140 145 149 151 153 159 162 158 155 148 142 139 134 128 129 128 124 121 119 126 135 142 152 160 163 169 187 224 245 262 286 295 302 314 321 323 325 326 327 331 334 336 337 342 349 353 355 357 1 5 7 8 12 14 17 23 28 29 31 27 13 8 9 12 17 20 19 18 19 13 7 7 9 9 9 8 7 8 10 9 8
127 129 130 133 137 142 146 148 151 157 161 158 157 152 146 147 145 139 137 136 134 128 124 130 137 141 148 154 156 164 182 211 237 258 271 281 294 308 312 311 317 324 330 333 336 339 343 348 354 357 357 359 2 4 4 5 7 10 16 24 26 25 24 17 8 8 10 12 15 18 16 13 15 12 6 5 8 9 9 7 7 9 11 11 11
124 124 127 132 136 140 143 146 150 157 159 158 160 160 156 156 156 150 146 146 144 137 132 135 138 141 148 150 153 171 198 226 251 268 282 296 302 304 307 311 318 328 336 338 340 344 347 352 358 2 1 0 0 360 1 4 7 12 19 23 21 18 15 10 8 7 8 11 13 14 12 9 12 12 5 3 7 8 7 8 8 10 12 13 13
124 124 125 129 135 139 142 146 149 155 159 161 166 166 162 162 162 158 154 152 150 146 143 144 145 152 157 153 163 191 228 248 261 272 287 300 303 303 310 317 323 331 338 340 342 345 348 353 358 2 2 2 2 359 1 5 9 15 21 22 16 10 7 7 8 4 3 7 8 9 7 6 11 11 4 2 6 6 6 9 10 11 14 15 15
125 124 124 126 131 134 137 141 146 152 159 165 169 167 164 167 165 163 162 155 152 154 157 157 160 170 175 172 190 228 282 275 273 285 300 310 314 315 321 328 331 336 343 344 344 346 350 353 356 360 3 6 5 2 5 8 12 16 18 18 11 5 4 5 1 358 359 0 360 360 359 2 9 9 3 2 4 5 7 11 12 12 15 17 17
128 126 127 128 129 130 130 133 138 144 151 159 165 166 167 170 167 164 162 153 155 163 168 172 180 191 199 208 230 268 305 299 297 302 310 321 330 332 334 339 341 344 349 351 352 353 354 353 354 359 4 9 9 10 15 14 11 11 10 8 4 3 3 357 350 349 353 356 355 352 351 358 6 5 2 360 1 5 9 13 14 13 15 18 19
138 137 138 137 135 133 131 131 134 138 142 146 154 161 166 168 169 166 162 156 160 171 180 188 201 213 220 235 258 281 293 302 310 316 317 320 327 332 337 343 345 345 346 348 354 357 356 355 356 1 6 12 15 19 22 16 10 6 5 4 360 0 357 346 341 341 346 352 353 349 347 356 3 360 358 357 0 8 11 14 16 15 16 19 20
145 148 150 147 143 144 142 140 141 139 139 141 147 153 158 164 170 170 167 168 172 182 193 200 214 232 247 262 275 283 290 296 303 314 319 317 315 318 327 335 337 337 338 341 350 356 354 353 357 4 9 13 16 22 23 17 12 6 5 5 358 354 348 338 336 338 341 346 348 346 346 357 2 355 353 356 1 11 14 16 17 16 17 20 21
144 149 153 151 152 157 156 152 151 147 144 146 150 154 159 165 171 172 174 185 198 207 216 224 234 250 267 279 284 286 288 294 299 305 311 316 315 312 313 320 327 333 337 341 348 353 352 353 357 3 8 13 18 24 26 21 17 10 6 3 354 349 343 335 335 336 338 342 344 344 347 358 3 352 350 357 5 14 17 18 18 17 19 21 22
146 147 148 150 158 165 166 163 162 162 160 159 161 165 168 174 179 186 191 202 219 234 247 255 261 269 277 283 287 289 291 296 301 300 301 311 322 318 313 319 330 338 342 344 346 349 351 351 355 2 7 15 24 30 31 26 18 10 2 354 349 348 341 336 337 335 335 341 345 346 350 359 2 352 348 357 8 16 19 20 19 17 20 22 23
156 156 154 154 160 163 164 168 171 177 180 176 177 177 180 188 194 203 215 222 235 245 255 265 271 273 275 280 285 287 289 296 302 303 306 314 324 326 322 327 338 344 347 346 343 347 352 349 351 2 11 17 29 35 30 22 12 1 352 348 349 348 343 340 338 334 336 345 349 352 356 0 2 353 348 357 12 17 19 23 21 19 21 23 23
170 172 171 166 164 160 158 163 168 183 193 190 191 195 198 206 208 216 226 238 247 253 259 266 269 271 275 279 280 281 284 291 297 304 314 323 328 330 331 336 343 351 355 351 344 346 355 355 351 360 13 19 27 32 21 8 1 353 349 350 352 351 346 342 339 338 342 349 354 358 1 3 1 356 352 358 14 17 18 24 23 20 22 23 24
189 186 183 180 178 170 164 164 170 182 192 197 206 213 219 222 223 226 230 238 248 255 260 265 268 272 276 279 281 285 290 293 295 301 310 319 323 325 329 335 341 348 353 351 347 347 353 0 359 0 11 18 20 20 9 359 358 355 353 353 354 352 349 346 344 345 347 354 1 4 4 3 359 358 357 1 15 17 18 25 25 22 23 23 24
204 200 195 194 196 189 180 181 185 187 191 198 210 220 229 234 238 238 239 242 246 251 257 263 269 273 276 279 282 287 292 294 296 299 303 307 309 314 322 329 334 341 347 346 343 342 346 357 5 6 9 10 9 8 6 4 2 0 358 356 356 357 354 349 348 349 353 1 9 10 7 4 359 1 2 5 15 17 18 27 25 23 25 24 24
211 211 208 211 218 213 201 200 200 201 205 211 219 224 229 234 237 240 244 249 252 254 258 264 271 276 276 278 281 284 288 290 291 292 295 297 298 301 309 316 320 326 336 336 334 335 339 347 356 0 358 355 356 1 4 6 5 2 1 359 1 2 357 349 347 352 358 6 12 14 12 8 5 7 8 8 14 15 17 26 26 24 26 25 24
220 220 218 223 232 235 232 229 224 217 216 222 229 233 234 235 235 237 242 247 251 256 262 269 275 277 277 277 279 281 284 286 285 286 289 291 291 293 297 302 307 313 320 321 321 325 330 334 338 344 346 342 345 356 3 3 3 2 2 3 4 1 354 347 347 352 358 6 13 17 17 14 13 13 11 9 11 12 15 22 24 24 26 26 25
226 228 230 234 239 245 249 251 246 237 231 230 232 235 238 240 240 241 242 243 246 252 259 267 273 276 277 277 277 276 277 280 282 283 284 284 286 290 295 298 300 301 305 308 312 318 322 322 323 329 338 339 340 351 3 2 359 360 1 0 358 354 347 344 348 352 355 1 9 13 17 19 19 17 13 10 9 9 13 19 21 22 24 24 24
233 234 237 241 244 248 251 253 253 252 248 243 242 243 245 246 247 250 251 249 249 252 256 261 267 269 271 271 270 269 272 278 283 286 288 288 287 288 290 293 293 294 299 305 309 312 314 316 317 321 331 334 332 339 349 349 350 355 354 351 349 345 337 339 350 353 352 356 2 5 10 18 22 17 10 7 6 5 9 15 17 19 21 22 22
237 237 239 243 247 248 248 250 250 251 252 251 252 252 251 250 250 252 255 257 256 255 256 257 260 262 265 267 270 273 279 285 289 291 291 291 291 290 289 289 291 294 299 305 308 309 312 317 319 323 329 328 323 326 331 332 336 343 343 338 340 337 329 335 352 352 348 354 357 357 0 7 13 11 3 360 359 360 4 7 9 12 14 16 19
237 238 238 241 246 248 248 249 249 250 252 254 255 256 257 256 254 254 257 259 259 257 256 257 258 262 267 271 275 279 284 287 289 290 292 293 295 296 295 295 295 297 301 304 308 312 317 321 322 324 325 321 317 317 319 319 322 327 328 326 330 331 325 332 347 346 345 352 351 348 353 357 0 0 356 354 352 353 356 358 0 3 5 7 11
238 238 237 238 241 244 245 247 249 251 253 255 256 257 258 258 259 259 260 260 261 260 260 263 265 266 269 271 274 277 279 281 283 285 286 289 292 294 294 295 295 296 301 304 307 313 317 318 316 314 312 309 308 308 310 311 311 314 316 317 321 325 322 326 338 339 339 346 344 341 347 350 351 352 350 348 347 347 350 352 353 356 357 360 2
240 242 241 241 240 242 243 245 248 252 256 258 261 261 259 259 258 260 261 262 263 264 266 270 271 270 270 270 272 274 275 277 279 280 281 283 286 287 288 289 289 291 295 299 302 305 308 308 305 302 301 300 298 299 303 303 302 303 305 310 316 318 315 318 330 333 329 333 334 333 337 341 343 344 342 341 340 342 345 347 347 349 349 351 353
240 243 245 244 244 244 245 245 246 250 254 258 261 263 262 261 260 259 260 261 261 263 266 269 270 270 270 272 274 276 276 276 279 281 282 283 284 285 286 288 290 290 292 295 298 301 301 301 298 295 294 294 294 297 300 299 299 300 300 303 310 313 311 313 322 325 320 319 321 323 327 332 335 336 334 333 334 337 340 341 340 341 341 342 343
238 241 244 246 248 248 248 248 248 248 250 254 257 260 262 262 262 260 260 261 262 263 264 266 267 269 270 271 273 275 276 279 281 283 282 282 283 285 287 289 291 293 294 295 296 297 297 296 294 292 290 290 291 294 294 293 295 299 301 303 306 307 308 311 316 319 314 310 312 317 322 326 331 330 327 326 329 332 334 334 333 333 334 334 333
239 239 242 245 247 249 249 250 250 250 251 252 254 256 259 260 261 261 261 262 264 265 266 267 267 268 269 270 271 272 275 278 281 282 281 282 282 283 283 284 286 288 290 290 291 292 294 295 294 292 290 290 290 290 288 288 290 294 297 301 305 306 307 310 314 317 316 312 312 316 319 321 324 324 321 322 325 329 331 331 331 329 328 327 325
239 239 241 244 246 247 249 250 252 253 253 254 255 256 258 260 261 262 262 262 264 266 268 269 269 270 271 272 273 274 276 277 278 279 280 281 281 282 282 282 283 285 285 285 286 289 291 293 294 292 292 293 292 288 286 286 288 291 293 297 301 305 308 309 309 313 318 319 317 318 319 319 319 319 318 319 321 325 329 330 330 329 326 323 322
242 242 243 244 246 248 250 251 252 252 252 253 254 255 257 259 261 262 262 263 264 265 268 269 270 271 272 274 277 278 279 279 278 279 279 279 280 281 282 282 283 284 284 284 284 287 290 291 292 291 293 295 293 289 287 286 286 289 292 295 298 301 303 302 299 301 308 312 313 314 315 315 315 315 314 315 317 319 322 323 323 323 322 319 317
246 247 247 247 247 248 249 250 251 251 252 254 256 256 256 256 256 257 258 259 262 265 266 267 267 268 270 273 276 278 281 282 283 283 282 281 280 280 281 281 281 282 282 283 283 285 288 289 290 289 291 293 293 289 286 285 285 286 288 290 293 296 298 298 295 294 297 300 301 302 303 305 307 308 308 309 310 311 313 313 314 313 312 309 307
246 248 249 248 247 246 246 247 248 249 251 253 255 257 258 256 253 251 249 247 250 256 261 263 265 267 269 270 272 276 279 282 285 286 285 284 283 282 282 281 281 281 281 282 282 284 285 287 287 287 288 290 290 288 285 284 283 283 282 283 286 290 293 295 295 294 294 296 295 294 294 295 298 299 300 302 303 305 306 307 307 306 303 301 299
243 246 249 249 250 251 252 253 254 254 254 255 256 257 258 258 254 249 244 241 242 249 256 261 266 270 271 272 275 278 281 283 286 287 287 286 284 283 282 282 282 282 282 281 281 281 283 284 285 286 286 287 286 286 285 285 284 283 282 281 283 286 289 290 290 291 293 294 293 291 290 290 291 291 292 294 296 298 299 301 301 300 299 298 298
241 245 249 251 253 254 254 255 257 258 258 257 257 258 258 259 257 252 247 243 244 249 255 260 267 272 275 279 282 284 284 284 285 286 287 287 286 284 281 279 280 280 281 280 280 280 280 281 281 282 283 284 284 283 283 283 283 285 285 285 284 284 284 284 285 287 290 291 290 289 289 288 288 288 288 289 290 291 292 294 294 294 295 296 297
247 248 250 251 251 251 251 252 253 255 257 258 258 257 257 256 256 255 253 251 252 255 258 262 265 267 269 272 274 277 280 281 282 283 284 284 285 285 283 280 278 278 280 281 281 281 281 280 279 279 281 282 282 281 280 279 280 281 284 286 287 286 284 283 283 284 285 286 286 288 288 288 289 289 288 288 288 289 290 291 290 290 291 292 293
248 249 250 251 251 250 251 252 254 255 256 259 260 258 257 256 255 256 257 258 259 261 262 264 265 266 268 269 270 272 276 278 278 278 279 281 282 282 282 282 282 281 282 282 281 280 280 280 280 279 280 281 280 278 277 277 276 277 280 282 283 284 285 284 284 284 283 282 283 284 285 287 288 289 289 288 287 288 290 291 290 289 288 288 288
248 248 250 253 254 254 254 256 257 257 256 257 260 261 261 261 261 262 263 264 265 265 265 266 267 267 268 269 270 273 277 278 277 274 274 277 279 279 278 279 280 281 282 283 283 281 279 278 279 279 279 279 278 277 276 275 275 276 277 279 280 281 282 282 283 285 284 282 281 281 282 284 286 287 288 288 287 287 287 287 287 286 286 285 286
253 252 252 253 254 255 256 258 260 261 261 261 261 262 262 262 263 264 265 265 267 269 270 271 271 270 270 271 273 276 279 279 277 274 273 273 274 275 275 275 276 276 276 280 283 283 281 279 276 275 277 278 277 276 276 275 274 274 275 276 277 278 279 279 281 283 283 282 281 281 281 283 285 286 286 286 286 286 285 283 283 282 282 282 283
257 257 257 257 257 257 259 262 264 265 266 266 263 262 262 262 263 264 264 266 267 269 270 272 273 274 275 276 278 279 280 280 279 276 273 271 270 269 270 272 273 272 270 272 275 280 284 284 278 272 271 274 274 274 274 273 271 271 271 272 274 275 276 277 278 280 281 281 281 281 280 280 282 283 284 285 285 284 283 281 280 281 281 281 282
Height
5920 5921 5922 5923 5924 5925 5926 5927 5928 5928 5929 5930 5930 5930 5931 5931 5932 5933 5933 5934 5935 5936 5937 5937 5937 5938 5938 5939 5939 5939 5940 5940 5940 5940 5940 5940 5940 5940 5940 5940 5940 5941 5941 5941 5941 5941 5941 5941 5941 5940 5939 5939 5938 5937 5937 5936 5935 5934 5934 5933 5932 5930 5929 5927 5926 5924 5923 5921 5918 5916 5913 5912 5911 5911 5911 5910 5909 5908 5905 5902 5899 5897 5895 5894 5892
5923 5923 5924 5925 5926 5927 5928 5929 5929 5930 5930 5931 5931 5931 5932 5932 5933 5934 5934 5935 5936 5937 5938 5939 5939 5939 5940 5940 5941 5941 5941 5941 5942 5942 5941 5941 5941 5941 5941 5942 5942 5942 5942 5942 5942 5942 5942 5942 5941 5941 5940 5939 5939 5938 5937 5937 5936 5935 5934 5933 5932 5931 5929 5928 5926 5925 5924 5921 5919 5917 5915 5913 5911 5910 5909 5908 5907 5906 5904 5902 5900 5897 5895 5893 5892
5925 5925 5926 5927 5927 5928 5929 5930 5931 5931 5931 5932 5933 5933 5933 5934 5934 5935 5935 5936 5937 5938 5940 5940 5941 5941 5941 5942 5942 5943 5943 5943 5943 5943 5943 5943 5943 5943 5943 5943 5943 5943 5943 5943 5943 5943 5943 5942 5942 5941 5941 5940 5939 5939 5938 5937 5936 5935 5934 5933 5932 5931 5930 5928 5927 5926 5924 5922 5920 5918 5916 5914 5912 5910 5908 5906 5905 5904 5902 5901 5899 5898 5896 5894 5892
5927 5927 5928 5929 5929 5930 5931 5931 5932 5932 5933 5933 5934 5934 5935 5935 5935 5936 5937 5937 5939 5940 5941 5941 5942 5942 5943 5943 5944 5944 5944 5944 5945 5945 5945 5944 5944 5944 5944 5944 5944 5944 5944 5944 5944 5944 5943 5943 5943 5942 5941 5941 5940 5939 5938 5938 5937 5936 5935 5934 5932 5931 5930 5929 5928 5926 5925 5923 5921 5919 5917 5915 5913 5911 5909 5907 5905 5904 5902 5900 5899 5897 5895 5893 5891
5928 5929 5930 5930 5931 5931 5932 5932 5933 5933 5934 5935 5935 5936 5936 5936 5937 5937 5938 5938 5939 5940 5941 5942 5943 5943 5944 5944 5945 5945 5945 5946 5946 5946 5946 5946 5946 5945 5945 5945 5945 5945 5945 5945 5945 5944 5944 5944 5943 5943 5942 5941 5941 5940 5939 5938 5937 5936 5935 5934 5933 5932 5931 5929 5928 5927 5925 5924 5922 5920 5918 5916 5915 5913 5911 5909 5907 5905 5903 5901 5899 5897 5895 5893 5891
5930 5930 5931 5932 5932 5932 5933 5934 5934 5935 5935 5936 5936 5937 5937 5937 5938 5938 5938 5939 5940 5941 5942 5943 5944 5944 5945 5945 5946 5946 5946 5947 5947 5947 5947 5947 5947 5946 5946 5946 5946 5946 5946 5946 5945 5945 5945 5944 5944 5943 5942 5942 5941 5940 5939 5938 5937 5936 5935 5934 5933 5932 5931 5930 5928 5927 5926 5924 5923 5921 5919 5918 5916 5915 5913 5910 5908 5906 5904 5902 5899 5898 5895 5893 5890
5931 5931 5932 5933 5933 5934 5934 5935 5935 5936 5936 5937 5938 5938 5938 5938 5939 5939 5939 5940 5941 5942 5943 5944 5945 5945 5946 5946 5947 5947 5947 5948 5948 5948 5948 5948 5948 5947 5947 5947 5947 5947 5946 5946 5946 5946 5945 5945 5944 5944 5943 5942 5941 5941 5940 5939 5938 5937 5936 5935 5934 5933 5931 5930 5929 5927 5926 5925 5923 5922 5920 5919 5917 5916 5914 5912 5909 5907 5905 5902 5900 5898 5895 5893 5890
5932 5932 5933 5934 5934 5935 5935 5936 5936 5937 5937 5938 5939 5939 5939 5939 5940 5940 5940 5940 5941 5942 5943 5944 5945 5946 5947 5948 5948 5948 5949 5949 5949 5949 5949 5949 5949 5948 5948 5948 5947 5947 5947 5947 5946 5946 5946 5945 5945 5944 5943 5942 5942 5941 5940 5939 5938 5937 5936 5935 5934 5933 5932 5930 5929 5928 5927 5925 5924 5922 5921 5919 5918 5917 5915 5913 5910 5908 5906 5903 5901 5898 5896 5893 5890
5933 5934 5934 5935 5935 5936 5937 5937 5937 5938 5938 5939 5939 5940 5940 5940 5940 5941 5941 5941 5942 5943 5944 5945 5945 5946 5947 5948 5949 5949 5950 5950 5950 5950 5950 5949 5949 5949 5949 5948 5948 5948 5948 5947 5947 5946 5946 5945 5945 5944 5943 5943 5942 5941 5940 5939 5939 5938 5937 5935 5934 5933 5932 5931 5930 5928 5927 5926 5924 5923 5921 5920 5919 5917 5915 5913 5911 5909 5907 5904 5901 5899 5896 5893 5890
5935 5935 5935 5936 5936 5937 5937 5938 5938 5939 5939 5940 5940 5940 5940 5941 5941 5942 5942 5942 5942 5943 5944 5945 5946 5947 5948 5949 5950 5950 5950 5950 5950 5950 5950 5950 5950 5949 5949 5949 5949 5948 5948 5948 5947 5947 5946 5946 5945 5944 5944 5943 5942 5941 5940 5940 5939 5938 5937 5935 5934 5933 5932 5931 5930 5929 5927 5926 5925 5923 5922 5920 5919 5918 5916 5914 5912 5910 5907 5905 5902 5899 5896 5894 5891
5935 5936 5936 5937 5937 5937 5938 5939 5939 5940 5940 5940 5941 5941 5941 5942 5942 5943 5943 5943 5943 5943 5944 5945 5946 5947 5948 5949 5950 5951 5951 5951 5951 5951 5951 5950 5950 5950 5949 5949 5949 5949 5948 5948 5948 5947 5946 5946 5945 5945 5944 5943 5942 5941 5940 5940 5939 5938 5937 5936 5934 5933 5932 5931 5930 5929 5928 5927 5925 5924 5922 5921 5920 5919 5917 5915 5913 5910 5908 5905 5902 5900 5897 5894 5891
5936 5937 5937 5938 5938 5938 5938 5939 5940 5940 5941 5941 5941 5942 5942 5942 5943 5943 5944 5944 5944 5944 5945 5945 5946 5947 5949 5950 5951 5952 5952 5952 5951 5951 5951 5951 5950 5950 5950 5950 5949 5949 5949 5948 5948 5947 5947 5946 5945 5945 5944 5943 5942 5942 5941 5940 5939 5938 5937 5936 5935 5933 5932 5931 5930 5929 5928 5927 5926 5924 5923 5921 5921 5920 5918 5916 5913 5911 5908 5905 5903 5900 5897 5894 5891
5937 5938 5938 5938 5939 5939 5939 5939 5940 5940 5941 5941 5942 5942 5943 5943 5943 5944 5944 5945 5945 5945 5945 5946 5947 5948 5949 5950 5951 5952 5952 5952 5952 5952 5952 5951 5951 5951 5950 5950 5950 5949 5949 5948 5948 5947 5947 5946 5946 5945 5944 5943 5942 5942 5941 5940 5939 5938 5937 5936 5935 5934 5933 5932 5931 5930 5929 5928 5926 5925 5923 5922 5921 5920 5918 5916 5914 5912 5909 5906 5903 5900 5898 5895 5892
5938 5938 5939 5939 5939 5939 5940 5940 5940 5941 5941 5942 5942 5943 5943 5944 5944 5945 5945 5945 5945 5946 5946 5947 5947 5948 5950 5951 5951 5952 5952 5952 5952 5952 5952 5952 5951 5951 5951 5950 5950 5949 5949 5948 5948 5947 5947 5946 5946 5945 5944 5943 5942 5942 5941 5940 5939 5938 5937 5936 5935 5934 5933 5932 5931 5930 5929 5928 5927 5926 5924 5923 5921 5920 5919 5917 5914 5912 5909 5906 5903 5901 5898 5895 5892
5938 5939 5939 5940 5940 5940 5940 5941 5941 5942 5942 5942 5943 5943 5944 5945 5945 5945 5945 5946 5946 5946 5947 5947 5948 5949 5950 5951 5951 5952 5952 5952 5952 5953 5952 5952 5952 5951 5951 5951 5950 5950 5949 5948 5948 5947 5947 5946 5945 5945 5944 5943 5942 5942 5941 5940 5939 5938 5937 5936 5935 5934 5934 5933 5932 5931 5930 5928 5927 5926 5925 5923 5922 5920 5919 5917 5915 5913 5910 5907 5904 5901 5899 5896 5893
5939 5939 5940 5940 5941 5941 5941 5941 5942 5942 5943 5943 5944 5944 5945 5945 5946 5946 5946 5946 5947 5947 5947 5948 5949 5949 5950 5951 5951 5951 5952 5952 5952 5952 5952 5952 5952 5952 5951 5951 5950 5950 5949 5948 5948 5947 5946 5946 5945 5945 5944 5943 5943 5942 5941 5940 5939 5938 5937 5936 5936 5935 5934 5933 5932 5931 5930 5929 5928 5926 5925 5924 5922 5921 5919 5918 5916 5913 5911 5908 5905 5902 5899 5897 5894
5940 5940 5941 5941 5941 5942 5942 5942 5942 5943 5944 5944 5945 5945 5946 5946 5946 5947 5947 5947 5947 5948 5948 5949 5949 5950 5950 5951 5951 5951 5952 5952 5952 5952 5952 5952 5952 5952 5951 5951 5950 5950 5949 5949 5948 5947 5946 5946 5945 5945 5944 5944 5943 5942 5941 5940 5939 5939 5938 5937 5936 5935 5935 5934 5933 5932 5931 5929 5928 5927 5926 5924 5923 5921 5920 5918 5916 5914 5912 5909 5906 5903 5900 5898 5895
5941 5941 5941 5942 5942 5942 5942 5942 5943 5944 5944 5945 5945 5946 5946 5947 5947 5947 5947 5948 5948 5948 5949 5949 5950 5950 5951 5951 5951 5952 5952 5952 5952 5952 5952 5952 5952 5952 5951 5951 5950 5950 5949 5949 5948 5947 5947 5946 5946 5945 5945 5944 5943 5942 5941 5940 5940 5939 5938 5938 5937 5936 5935 5934 5933 5932 5931 5930 5929 5928 5927 5925 5923 5922 5921 5919 5917 5915 5913 5910 5907 5904 5901 5899 5896
5942 5942 5942 5943 5943 5943 5943 5943 5944 5944 5945 5945 5945 5946 5946 5947 5947 5947 5948 5948 5948 5949 5949 5950 5950 5950 5951 5951 5951 5952 5952 5952 5952 5952 5952 5952 5951 5951 5951 5951 5950 5950 5949 5949 5948 5948 5947 5947 5946 5946 5945 5944 5943 5942 5941 5941 5940 5939 5939 5938 5937 5937 5936 5935 5934 5933 5932 5931 5929 5928 5927 5926 5924 5922 5921 5919 5918 5916 5913 5911 5908 5905 5902 5900 5897
5943 5943 5943 5943 5944 5944 5944 5944 5944 5945 5945 5946 5946 5946 5946 5947 5947 5948 5948 5948 5949 5949 5949 5950 5950 5950 5951 5951 5951 5951 5952 5952 5952 5952 5951 5951 5951 5951 5951 5951 5950 5950 5950 5949 5949 5948 5948 5947 5947 5946 5945 5944 5943 5942 5941 5941 5940 5940 5939 5938 5938 5937 5936 5936 5935 5933 5932 5931 5930 5929 5927 5926 5924 5923 5922 5920 5918 5916 5914 5911 5909 5906 5903 5901 5898
5943 5944 5944 5944 5944 5945 5945 5945 5945 5946 5946 5946 5947 5947 5947 5947 5948 5948 5949 5949 5949 5949 5950 5950 5950 5950 5951 5951 5951 5951 5952 5952 5952 5952 5951 5951 5951 5951 5951 5951 5950 5950 5950 5949 5949 5948 5948 5947 5946 5946 5945 5944 5943 5942 5942 5941 5941 5940 5939 5939 5938 5937 5937 5936 5935 5934 5932 5931 5930 5929 5927 5926 5924 5923 5922 5920 5919 5917 5915 5912 5910 5907 5904 5902 5900
5943 5944 5944 5944 5945 5945 5945 5946 5946 5947 5947 5947 5947 5947 5947 5948 5948 5948 5949 5949 5949 5950 5950 5950 5950 5951 5951 5951 5951 5952 5952 5952 5952 5951 5951 5951 5951 5951 5951 5951 5950 5950 5949 5949 5948 5948 5947 5947 5946 5945 5945 5944 5943 5942 5942 5942 5941 5940 5940 5939 5938 5938 5937 5936 5935 5934 5933 5931 5930 5929 5927 5926 5925 5923 5922 5921 5919 5917 5915 5913 5911 5908 5905 5903 5901
5944 5944 5945 5945 5945 5945 5946 5946 5947 5947 5947 5947 5948 5948 5948 5948 5949 5949 5949 5950 5950 5950 5950 5950 5951 5951 5951 5952 5952 5952 5952 5952 5952 5951 5951 5951 5951 5951 5951 5951 5950 5950 5949 5949 5948 5947 5947 5946 5946 5945 5944 5944 5943 5942 5942 5942 5941 5941 5940 5939 5938 5937 5937 5936 5935 5934 5933 5932 5930 5929 5927 5926 5925 5923 5922 5921 5919 5918 5916 5914 5912 5909 5907 5904 5902
5943 5944 5945 5945 5945 5946 5946 5947 5947 5948 5948 5948 5948 5948 5949 5949 5949 5950 5950 5950 5950 5950 5951 5951 5951 5951 5951 5952 5952 5952 5952 5952 5952 5951 5951 5951 5951 5951 5951 5950 5950 5949 5949 5948 5947 5947 5946 5946 5945 5945 5944 5943 5943 5942 5942 5941 5941 5940 5939 5938 5938 5937 5936 5936 5935 5934 5933 5931 5930 5928 5927 5926 5925 5924 5923 5921 5920 5918 5917 5915 5913 5911 5908 5906 5904
5943 5944 5944 5945 5945 5946 5946 5946 5947 5948 5948 5948 5948 5949 5949 5949 5950 5950 5950 5951 5951 5951 5951 5951 5951 5951 5951 5952 5952 5952 5951 5951 5951 5951 5951 5951 5951 5950 5950 5950 5949 5949 5949 5948 5947 5947 5946 5946 5945 5944 5944 5943 5942 5942 5942 5941 5940 5939 5939 5938 5938 5937 5936 5936 5935 5933 5932 5931 5929 5928 5927 5926 5925 5924 5923 5921 5920 5918 5917 5915 5913 5912 5909 5907 5905
5943 5944 5944 5944 5945 5945 5946 5946 5947 5947 5948 5948 5949 5949 5949 5950 5950 5950 5950 5951 5951 5951 5951 5951 5951 5951 5951 5951 5951 5951 5951 5951 5951 5950 5950 5950 5950 5950 5950 5950 5949 5949 5949 5948 5948 5947 5946 5946 5945 5945 5944 5943 5943 5942 5942 5941 5940 5939 5939 5938 5938 5937 5936 5935 5934 5933 5931 5930 5929 5927 5926 5925 5925 5924 5923 5922 5920 5919 5917 5916 5914 5913 5911 5908 5906
5943 5943 5944 5944 5945 5945 5945 5946 5947 5947 5948 5948 5948 5949 5949 5950 5950 5950 5951 5951 5951 5950 5950 5950 5950 5950 5950 5951 5951 5950 5950 5950 5950 5950 5950 5950 5950 5950 5949 5949 5949 5949 5949 5949 5948 5947 5947 5946 5946 5945 5945 5944 5943 5943 5942 5941 5940 5940 5939 5939 5938 5937 5936 5935 5934 5933 5931 5930 5928 5927 5926 5925 5924 5924 5923 5922 5921 5919 5918 5916 5915 5914 5912 5910 5908
5943 5944 5944 5944 5944 5945 5945 5946 5946 5947 5947 5948 5948 5949 5949 5949 5950 5950 5951 5951 5950 5950 5950 5950 5949 5950 5950 5950 5950 5950 5950 5950 5950 5949 5949 5949 5949 5949 5949 5949 5949 5949 5949 5949 5948 5947 5947 5947 5946 5946 5945 5945 5944 5943 5942 5942 5941 5941 5940 5939 5938 5937 5936 5935 5934 5933 5931 5930 5928 5927 5926 5925 5924 5923 5922 5922 5921 5920 5918 5917 5916 5915 5913 5911 5909
5943 5944 5944 5944 5945 5945 5945 5945 5946 5947 5947 5947 5948 5948 5948 5949 5950 5950 5950 5950 5950 5950 5949 5949 5949 5949 5950 5950 5950 5950 5950 5949 5949 5949 5949 5949 5948 5948 5948 5948 5948 5948 5948 5948 5948 5947 5947 5946 5946 5946 5945 5945 5944 5943 5943 5942 5942 5941 5940 5939 5939 5938 5937 5935 5934 5933 5931 5930 5929 5928 5927 5925 5924 5923 5923 5922 5921 5920 5919 5917 5916 5915 5914 5912 5910
5943 5943 5944 5944 5944 5945 5945 5945 5946 5946 5947 5947 5948 5948 5948 5948 5949 5949 5949 5949 5949 5949 5949 5949 5949 5949 5949 5950 5949 5949 5949 5949 5949 5948 5948 5948 5948 5948 5947 5947 5947 5947 5947 5947 5947 5946 5946 5945 5945 5945 5945 5944 5943 5943 5942 5942 5942 5941 5940 5939 5939 5938 5937 5935 5934 5933 5931 5930 5929 5928 5927 5926 5925 5924 5923 5923 5922 5920 5919 5918 5917 5916 5914 5913 5911
5942 5943 5943 5943 5944 5944 5945 5945 5945 5946 5946 5947 5948 5948 5948 5948 5948 5949 5949 5949 5949 5949 5949 5949 5949 5949 5949 5949 5949 5949 5948 5948 5948 5947 5947 5947 5947 5947 5947 5946 5946 5946 5945 5945 5945 5945 5945 5945 5944 5944 5944 5943 5942 5942 5942 5941 5941 5941 5940 5939 5939 5938 5936 5935 5934 5933 5931 5930 5929 5928 5927 5926 5925 5924 5924 5923 5922 5921 5920 5918 5917 5916 5915 5914 5912
5941 5942 5942 5943 5943 5944 5944 5945 5945 5945 5946 5947 5947 5948 5948 5948 5948 5948 5948 5948 5948 5948 5948 5948 5948 5948 5948 5948 5948 5948 5947 5947 5946 5946 5946 5946 5946 5946 5946 5946 5945 5945 5944 5944 5944 5944 5944 5944 5944 5943 5943 5942 5941 5941 5941 5941 5940 5940 5939 5939 5938 5937 5936 5934 5933 5932 5931 5930 5929 5928 5927 5926 5925 5924 5924 5923 5922 5921 5920 5919 5918 5917 5916 5914 5913
5940 5941 5941 5942 5942 5943 5943 5944 5944 5945 5946 5946 5947 5947 5947 5947 5947 5947 5948 5948 5948 5948 5947 5947 5947 5947 5947 5947 5947 5946 5946 5946 5946 5946 5946 5946 5946 5946 5945 5945 5945 5944 5944 5944 5943 5943 5943 5943 5943 5942 5941 5941 5940 5940 5940 5940 5939 5939 5939 5938 5938 5936 5935 5934 5933 5932 5931 5930 5929 5928 5927 5926 5925 5924 5923 5923 5922 5921 5920 5919 5918 5917 5916 5915 5914
5939 5940 5940 5941 5941 5942 5942 5943 5944 5944 5945 5945 5946 5946 5947 5947 5947 5947 5947 5947 5947 5947 5946 5946 5946 5946 5946 5946 5946 5946 5946 5946 5945 5945 5945 5945 5945 5945 5945 5944 5944 5944 5944 5943 5943 5943 5942 5942 5942 5941 5941 5940 5939 5939 5939 5939 5938 5938 5938 5937 5937 5936 5934 5934 5933 5932 5931 5930 5928 5927 5927 5926 5925 5924 5923 5923 5921 5920 5920 5919 5918 5917 5917 5916 5915
5938 5939 5939 5940 5940 5941 5941 5942 5943 5943 5943 5944 5944 5945 5945 5946 5946 5946 5946 5946 5946 5946 5946 5945 5945 5945 5945 5945 5945 5945 5945 5945 5945 5945 5945 5944 5944 5944 5944 5944 5944 5943 5943 5943 5943 5942 5942 5942 5941 5941 5940 5940 5939 5939 5939 5938 5937 5937 5937 5937 5936 5935 5934 5933 5932 5931 5930 5929 5928 5927 5926 5925 5925 5924 5923 5922 5921 5920 5919 5919 5918 5917 5917 5916 5915
5937 5938 5938 5939 5939 5940 5940 5941 5941 5942 5942 5942 5943 5943 5944 5944 5944 5945 5945 5945 5945 5945 5945 5945 5945 5945 5945 5944 5944 5944 5944 5944 5944 5944 5944 5944 5943 5943 5943 5943 5943 5943 5942 5942 5942 5942 5942 5941 5940 5940 5940 5939 5939 5938 5938 5938 5937 5936 5936 5935 5935 5934 5933 5932 5932 5931 5929 5929 5928 5926 5926 5925 5924 5924 5923 5922 5921 5920 5919 5918 5917 5917 5916 5916 5915
5936 5937 5937 5937 5938 5938 5939 5939 5940 5940 5940 5941 5941 5941 5942 5942 5943 5943 5944 5944 5944 5944 5944 5944 5944 5944 5944 5944 5943 5943 5943 5943 5943 5943 5943 5943 5942 5942 5942 5942 5942 5942 5941 5941 5941 5941 5941 5940 5940 5939 5939 5939 5938 5938 5937 5937 5936 5935 5935 5935 5934 5932 5931 5931 5931 5930 5928 5928 5927 5926 5925 5924 5924 5923 5922 5921 5920 5919 5919 5918 5917 5916 5916 5915 5915
5935 5935 5935 5936 5936 5936 5937 5937 5938 5938 5939 5939 5939 5940 5940 5940 5941 5941 5942 5942 5943 5943 5943 5943 5943 5943 5943 5942 5942 5942 5942 5942 5942 5942 5942 5941 5941 5941 5941 5941 5941 5940 5940 5940 5940 5940 5940 5939 5939 5939 5938 5938 5937 5937 5937 5936 5934 5934 5933 5934 5933 5932 5930 5929 5930 5929 5927 5926 5926 5925 5924 5923 5923 5922 5921 5920 5919 5919 5918 5917 5917 5916 5916 5915 5914
5932 5933 5933 5933 5934 5934 5934 5935 5935 5936 5937 5937 5937 5938 5938 5939 5939 5940 5940 5941 5941 5941 5941 5942 5942 5942 5941 5941 5941 5941 5941 5941 5941 5940 5940 5940 5940 5940 5940 5940 5939 5939 5939 5939 5939 5939 5938 5938 5938 5937 5937 5937 5937 5936 5936 5935 5933 5932 5931 5931 5932 5931 5929 5927 5928 5928 5926 5925 5924 5924 5923 5922 5921 5921 5920 5919 5918 5918 5918 5917 5916 5916 5915 5914 5914
5930 5930 5930 5931 5931 5932 5932 5933 5933 5934 5934 5935 5935 5935 5936 5936 5937 5937 5938 5938 5939 5939 5939 5940 5940 5940 5940 5940 5940 5940 5940 5940 5939 5939 5939 5939 5938 5938 5938 5938 5938 5938 5938 5938 5938 5937 5937 5937 5937 5936 5936 5936 5935 5935 5934 5933 5932 5931 5930 5929 5929 5930 5929 5927 5926 5926 5925 5924 5923 5922 5921 5920 5920 5919 5918 5918 5917 5917 5917 5916 5916 5915 5914 5914 5913
5927 5927 5928 5928 5929 5929 5930 5930 5931 5931 5932 5932 5932 5933 5933 5934 5934 5935 5936 5936 5936 5937 5937 5937 5938 5938 5938 5938 5938 5938 5938 5938 5938 5937 5937 5937 5937 5937 5937 5936 5936 5936 5936 5936 5936 5936 5936 5936 5935 5935 5935 5934 5934 5933 5932 5931 5930 5929 5928 5927 5927 5927 5927 5926 5924 5924 5924 5923 5921 5921 5920 5919 5918 5918 5917 5916 5916 5916 5916 5916 5915 5914 5913 5912 5911
5925 5925 5925 5926 5926 5927 5927 5927 5928 5928 5928 5929 5929 5930 5930 5931 5932 5932 5933 5934 5934 5934 5935 5935 5935 5935 5935 5936 5936 5936 5936 5936 5935 5935 5935 5935 5935 5934 5934 5935 5934 5934 5934 5934 5934 5934 5934 5934 5934 5933 5933 5933 5932 5931 5930 5929 5928 5928 5927 5926 5925 5925 5925 5924 5923 5922 5922 5921 5920 5919 5918 5918 5917 5916 5916 5915 5914 5914 5914 5914 5914 5913 5912 5911 5910
5923 5923 5923 5924 5924 5924 5924 5924 5925 5925 5925 5926 5926 5927 5927 5928 5929 5930 5930 5931 5931 5932 5932 5932 5932 5932 5933 5933 5933 5933 5933 5933 5933 5933 5933 5932 5932 5932 5931 5932 5932 5932 5932 5932 5931 5931 5931 5931 5931 5931 5931 5931 5931 5930 5929 5927 5926 5926 5925 5924 5923 5923 5922 5922 5921 5920 5920 5919 5918 5917 5917 5916 5916 5915 5914 5914 5913 5913 5912 5912 5912 5911 5910 5909 5908
5920 5921 5921 5921 5921 5921 5921 5922 5922 5922 5922 5923 5923 5924 5925 5925 5926 5927 5927 5928 5929 5929 5929 5929 5929 5929 5930 5930 5930 5931 5931 5931 5931 5930 5930 5930 5929 5929 5929 5929 5929 5929 5929 5929 5929 5928 5928 5928 5928 5929 5929 5928 5928 5928 5927 5926 5925 5924 5924 5923 5922 5921 5921 5920 5919 5917 5917 5917 5916 5915 5914 5914 5914 5913 5913 5912 5912 5911 5911 5910 5909 5909 5908 5908 5907
5918 5919 5919 5919 5919 5920 5920 5920 5920 5920 5920 5921 5921 5921 5922 5923 5924 5924 5925 5925 5925 5926 5926 5926 5926 5926 5927 5927 5927 5928 5928 5928 5928 5928 5928 5928 5927 5927 5926 5926 5926 5926 5926 5926 5926 5926 5925 5925 5925 5926 5926 5926 5925 5926 5925 5924 5923 5922 5921 5921 5920 5920 5919 5918 5917 5915 5914 5914 5913 5912 5911 5911 5911 5911 5911 5911 5910 5909 5909 5908 5907 5906 5906 5905 5905
5916 5917 5917 5917 5917 5917 5917 5917 5917 5917 5918 5918 5918 5919 5920 5921 5921 5922 5922 5922 5922 5923 5923 5923 5923 5923 5923 5924 5924 5924 5924 5924 5924 5924 5924 5924 5924 5924 5924 5923 5923 5923 5923 5923 5922 5922 5922 5922 5922 5922 5923 5923 5923 5923 5923 5922 5921 5920 5919 5918 5918 5918 5917 5916 5915 5914 5913 5911 5910 5909 5908 5907 5908 5908 5908 5908 5908 5907 5906 5906 5905 5904 5903 5903 5903
5914 5914 5914 5913 5914 5914 5915 5915 5915 5915 5915 5915 5915 5916 5917 5917 5918 5919 5919 5919 5919 5920 5920 5920 5920 5920 5920 5920 5920 5921 5921 5920 5920 5920 5920 5920 5920 5920 5920 5920 5920 5920 5920 5919 5919 5919 5919 5919 5919 5919 5919 5920 5920 5920 5920 5919 5919 5918 5917 5916 5915 5915 5915 5914 5913 5912 5911 5909 5908 5906 5905 5904 5905 5905 5905 5905 5906 5905 5904 5903 5903 5902 5901 5901 5901
5909 5910 5909 5908 5909 5910 5912 5913 5912 5912 5912 5912 5913 5913 5914 5914 5915 5915 5916 5916 5917 5917 5917 5917 5917 5917 5917 5917 5917 5918 5918 5917 5917 5916 5916 5916 5916 5916 5916 5916 5916 5916 5916 5916 5916 5916 5916 5916 5915 5915 5915 5915 5916 5916 5916 5916 5915 5914 5914 5913 5912 5912 5912 5911 5911 5910 5908 5906 5905 5904 5902 5900 5901 5902 5902 5901 5902 5902 5902 5901 5900 5899 5898 5898 5898
5905 5906 5906 5905 5905 5907 5908 5909 5908 5908 5909 5909 5910 5910 5911 5912 5912 5913 5913 5913 5913 5914 5914 5914 5914 5914 5914 5914 5914 5914 5913 5913 5913 5913 5912 5912 5911 5912 5912 5912 5911 5912 5912 5911 5911 5911 5912 5912 5912 5911 5911 5911 5911 5911 5912 5912 5911 5910 5910 5909 5909 5908 5908 5908 5907 5907 5905 5903 5902 5901 5899 5898 5897 5898 5898 5898 5898 5899 5899 5898 5897 5896 5896 5895 5895
5902 5903 5903 5903 5902 5903 5904 5904 5904 5904 5905 5906 5907 5907 5908 5909 5909 5909 5910 5910 5910 5910 5910 5910 5910 5910 5910 5910 5909 5909 5908 5908 5907 5907 5907 5907 5906 5906 5907 5907 5907 5907 5907 5907 5907 5907 5907 5907 5907 5907 5907 5906 5906 5907 5907 5907 5907 5906 5906 5905 5905 5905 5904 5904 5904 5903 5902 5900 5899 5899 5897 5896 5894 5894 5894 5894 5894 5895 5895 5894 5894 5893 5892 5892 5892
5897 5898 5899 5899 5899 5899 5899 5900 5900 5900 5901 5902 5903 5903 5904 5905 5905 5906 5906 5906 5907 5907 5906 5906 5905 5905 5905 5905 5904 5904 5903 5902 5902 5901 5901 5901 5901 5901 5901 5902 5902 5902 5902 5902 5902 5902 5902 5902 5902 5903 5903 5902 5901 5902 5902 5902 5902 5902 5901 5901 5901 5900 5900 5900 5900 5900 5898 5897 5896 5896 5895 5894 5892 5891 5891 5891 5891 5891 5891 5891 5890 5889 5889 5889 5889